Weather History for Mount Shasta, CA

Change the Weather History Date:

Saturday, July 28, 2012

  Actual Average Record
Temperature  
Mean Temperature 69 °F 69 °F  
Max Temperature 88 °F 88 °F 98 °F (1968)
Min Temperature 49 °F 50 °F 38 °F (1965)
Degree Days  
Heating Degree Days 0 1  
Month to date heating degree days 20 34  
Since 1 June heating degree days 199 176  
Since 1 July heating degree days 20 34  
Cooling Degree Days 4 5  
Month to date cooling degree days 115 112  
Year to date cooling degree days 156 157  
Since 1 June cooling degree days 147 149  
Growing Degree Days 18 (Base 50)    
Moisture  
Dew Point 43 °F    
Average Humidity 44    
Maximum Humidity 74    
Minimum Humidity 18    
Precipitation  
Precipitation 0.00 in 0.01 in 0.43 in (1947)
Month to date precipitation 0.06 0.36  
Year to date precipitation 24.55 26.96  
Sea Level Pressure  
Sea Level Pressure 30.06 in    
Wind  
Wind Speed 1 mph (ENE)    
Max Wind Speed 6 mph    
Max Gust Speed 13 mph    
Visibility 10 miles    
Events      
T = Trace of Precipitation, MM = Missing Value Source: NWS Daily Summary

Daily Weather History Graph

Daily Weather History Graph

Search for Another Location

Airport:

Trip Planner

Search our weather history database for the weather conditions in past years. The results will help you decide how hot, cold, wet, or windy it might be!

Date:

Astronomy

Jul. 28, 2012 Rise Set
Actual Time 6:01 AM PDT 8:29 PM PDT
Civil Twilight 5:29 AM PDT 9:01 PM PDT
Nautical Twilight 4:50 AM PDT 9:40 PM PDT
Astronomical Twilight 4:06 AM PDT 10:23 PM PDT
Moon 4:40 PM PDT (7/28) 1:24 AM PDT (7/28)
Length of Visible Light 15h 31m
Length of Day
14h 28m
Waxing Gibbous, 77% of the Moon is Illuminated
Jul 28
Waxing Gibbous
Aug 1
Full
Aug 9
Last Quarter
Aug 17
New
Aug 24
First Quarter

Hourly Weather History & Observations

Time (PDT) Temp. Dew Point Humidity Pressure Visibility Wind Dir Wind Speed Gust Speed Precip Events Conditions
12:56 AM 59.0 °F 41.0 °F 51% 30.07 in 10.0 mi Calm Calm - N/A   Clear
1:56 AM 55.0 °F 42.1 °F 62% 30.08 in 10.0 mi Calm Calm - N/A   Clear
2:56 AM 53.1 °F 42.1 °F 66% 30.08 in 10.0 mi Calm Calm - N/A   Clear
3:56 AM 52.0 °F 42.1 °F 69% 30.08 in 10.0 mi ENE 3.5 mph - N/A   Clear
4:56 AM 51.1 °F 42.1 °F 71% 30.09 in 10.0 mi ENE 3.5 mph - N/A   Clear
5:56 AM 50.0 °F 42.1 °F 74% 30.09 in 10.0 mi ENE 4.6 mph - N/A   Clear
6:56 AM 51.1 °F 42.1 °F 71% 30.10 in 9.0 mi ENE 3.5 mph - N/A   Clear
7:56 AM 59.0 °F 45.0 °F 60% 30.11 in 10.0 mi ENE 3.5 mph - N/A   Clear
8:56 AM 68.0 °F 45.0 °F 43% 30.09 in 10.0 mi Calm Calm - N/A   Clear
9:56 AM 72.0 °F 44.1 °F 37% 30.08 in 10.0 mi Calm Calm - N/A   Clear
10:56 AM 75.0 °F 45.0 °F 34% 30.07 in 10.0 mi Calm Calm - N/A   Clear
11:56 AM 80.1 °F 42.1 °F 26% 30.06 in 10.0 mi Variable 3.5 mph - N/A   Clear
12:56 PM 84.0 °F 43.0 °F 24% 30.05 in 10.0 mi Calm Calm - N/A   Clear
1:56 PM 84.0 °F 41.0 °F 22% 30.04 in 10.0 mi Calm Calm - N/A   Clear
2:56 PM 84.9 °F 39.9 °F 20% 30.04 in 10.0 mi Calm Calm - N/A   Clear
3:56 PM 87.1 °F 39.0 °F 18% 30.02 in 10.0 mi Calm Calm - N/A   Clear
4:56 PM 84.9 °F 37.9 °F 19% 30.02 in 10.0 mi Calm Calm - N/A   Clear
5:56 PM 82.0 °F 41.0 °F 23% 30.02 in 10.0 mi Variable 3.5 mph - N/A   Clear
6:56 PM 79.0 °F 43.0 °F 28% 30.03 in 10.0 mi Calm Calm - N/A   Clear
7:56 PM 73.9 °F 45.0 °F 35% 30.04 in 10.0 mi Calm Calm - N/A   Clear
8:56 PM 69.1 °F 45.0 °F 42% 30.05 in 10.0 mi Calm Calm - N/A   Clear
9:56 PM 64.9 °F 46.9 °F 52% 30.07 in 10.0 mi ENE 3.5 mph - N/A   Clear
10:56 PM 68.0 °F 46.9 °F 47% 30.07 in 10.0 mi Variable 3.5 mph - N/A   Clear
11:56 PM 66.0 °F 46.9 °F 50% 30.07 in 10.0 mi Calm Calm - N/A   Clear